Terminal Aerodrome Forecast
Issued by NWS St Louis, MO

Home | Current Version | Previous Version | Graphics & Text | Print | Product List | Glossary On
Versions: 1 2 3 4 5 6 7 8 9 10 11 12 13 14 15 16 17 18 19 20 21 22 23 24 25 26 27 28
000
FTUS43 KLSX 260700 AAB
TAFSTL
TAF AMD
KSTL 260721Z 2607/2712 16012KT P6SM BKN015 OVC150
     FM260900 17008KT P6SM VCSH OVC020
      TEMPO 2611/2613 3SM -SHRA OVC015
     FM261300 20012G22KT P6SM SCT025 BKN100=

USA.gov is the U.S. government's official web portal to all federal, state and local government web resources and services.